{"data":{"norad_id":59875,"intl_designator":"2024-098T","name":"STARLINK-31936","alt_names":[],"object_type":"PAYLOAD","status":"ACTIVE","operator":null,"country":"US","launch_date":"2024-05-24","launch_site_code":"AFETR","launch_vehicle":null,"mission":null,"orbit_class":"UNKNOWN","rcs_meters":null,"size_class":null,"mass_kg":null,"dimensions":null,"purposes":["comms"],"wikipedia_slug":null,"has_3d_model":false,"image_url":null,"decayed_at":null,"tle_current":{"epoch":"2026-09-21T13:35:55.838400Z","epoch_age_seconds":82343,"freshness":"FRESH","line1":"1 59875U 24098T   26264.56661850 -.00001556  00000+0 -47055-4 0  9997","line2":"2 59875  43.0022 219.4537 0001443 267.3167  92.7519 15.27567136132161","mean_motion":15.27567136,"eccentricity":0.0001443,"inclination_deg":43.0022,"raan_deg":219.4537,"arg_perigee_deg":267.3167,"mean_anomaly_deg":92.7519,"bstar":-4.7055e-5,"rev_number":13216,"period_min":94.267542555982,"perigee_km":482.09754104172,"apogee_km":484.07769046582,"semimajor_km":6861.2246157538,"source":"CELESTRAK","updated_at":"2026-09-22T09:00:49.103906Z"}}}